QPF
0.15 0.15 0.14 0.14 0.12 0.11 0.10 0.08 0.08 0.07 0.05 0.03 0.02 0.02 0.02 0.02 0.02 0.02 0.02 0.02 0.02 0.03 0.05 0.04 0.03 0.03 0.03 0.03 0.02 0.02 0.01 0.01 0.01 0.01 0.01 0.01 0.02 0.02
0.11 0.12 0.12 0.12 0.11 0.10 0.09 0.07 0.05 0.04 0.04 0.03 0.02 0.01 0.01 0.00 0.01 0.00 0.01 0.01 0.01 0.02 0.04 0.04 0.04 0.03 0.03 0.02 0.02 0.01 0.01 0.01 0.01 0.01 0.01 0.01 0.01 0.01
0.12 0.10 0.09 0.08 0.08 0.08 0.07 0.06 0.05 0.03 0.03 0.03 0.02 0.01 0.01 0.01 0.00 0.00 0.00 0.00 0.00 0.00 0.01 0.01 0.01 0.01 0.01 0.01 0.02 0.02 0.02 0.02 0.02 0.01 0.01 0.01 0.01 0.01
0.10 0.09 0.08 0.06 0.05 0.06 0.05 0.04 0.03 0.02 0.02 0.03 0.02 0.01 0.01 0.01 0.01 0.00 0.00 0.00 0.00 0.00 0.00 0.00 0.00 0.00 0.00 0.01 0.01 0.01 0.01 0.01 0.01 0.01 0.01 0.01 0.01 0.01
0.06 0.06 0.06 0.05 0.05 0.04 0.04 0.03 0.03 0.02 0.02 0.02 0.02 0.01 0.01 0.01 0.01 0.01 0.00 0.00 0.00 0.00 0.00 0.00 0.00 0.00 0.00 0.00 0.00 0.00 0.00 0.00 0.00 0.00 0.01 0.01 0.00 0.00
0.03 0.03 0.03 0.03 0.03 0.03 0.03 0.03 0.02 0.01 0.01 0.01 0.01 0.00 0.01 0.01 0.01 0.01 0.01 0.00 0.00 0.00 0.00 0.00 0.00 0.00 0.00 0.00 0.00 0.00 0.00 0.00 0.00 0.00 0.00 0.00 0.00 0.00
0.01 0.00 0.01 0.01 0.01 0.01 0.02 0.01 0.01 0.01 0.01 0.01 0.01 0.01 0.01 0.01 0.01 0.02 0.01 0.01 0.00 0.00 0.00 0.00 0.00 0.00 0.00 0.00 0.00 0.00 0.00 0.00 0.00 0.00 0.00 0.00 0.00 0.00
0.00 0.00 0.00 0.01 0.01 0.01 0.01 0.00 0.00 0.00 0.00 0.01 0.01 0.01 0.01 0.01 0.02 0.02 0.02 0.02 0.01 0.00 0.00 0.00 0.00 0.00 0.00 0.00 0.00 0.00 0.00 0.00 0.00 0.00 0.00 0.00 0.00 0.00
0.00 0.00 0.00 0.00 0.00 0.00 0.00 0.00 0.00 0.00 0.00 0.00 0.00 0.00 0.01 0.01 0.01 0.02 0.02 0.02 0.02 0.00 0.00 0.00 0.00 0.00 0.00 0.00 0.00 0.00 0.00 0.00 0.00 0.00 0.00 0.00 0.00 0.00
0.00 0.00 0.00 0.00 0.00 0.00 0.00 0.00 0.00 0.00 0.01 0.01 0.00 0.00 0.00 0.01 0.01 0.01 0.03 0.03 0.01 0.00 0.00 0.00 0.00 0.00 0.00 0.00 0.00 0.00 0.00 0.00 0.00 0.00 0.00 0.00 0.00 0.00
0.00 0.00 0.00 0.00 0.00 0.00 0.00 0.00 0.00 0.00 0.00 0.00 0.00 0.00 0.00 0.01 0.01 0.01 0.02 0.02 0.01 0.00 0.00 0.00 0.00 0.00 0.00 0.00 0.00 0.00 0.00 0.00 0.00 0.00 0.00 0.00 0.00 0.00
0.00 0.00 0.00 0.00 0.00 0.00 0.00 0.00 0.00 0.00 0.00 0.00 0.00 0.00 0.00 0.01 0.01 0.02 0.02 0.01 0.01 0.00 0.00 0.00 0.00 0.00 0.00 0.00 0.00 0.00 0.00 0.00 0.00 0.00 0.00 0.00 0.00 0.00
0.00 0.00 0.00 0.00 0.00 0.00 0.00 0.00 0.00 0.00 0.01 0.01 0.01 0.00 0.01 0.01 0.02 0.01 0.01 0.01 0.01 0.00 0.00 0.00 0.00 0.00 0.00 0.00 0.00 0.00 0.00 0.00 0.00 0.00 0.00 0.00 0.00 0.00
0.00 0.00 0.00 0.00 0.00 0.00 0.00 0.00 0.00 0.00 0.00 0.00 0.01 0.01 0.01 0.01 0.01 0.01 0.01 0.01 0.01 0.00 0.00 0.00 0.00 0.00 0.00 0.00 0.00 0.00 0.00 0.00 0.00 0.00 0.00 0.00 0.00 0.00
0.00 0.00 0.00 0.00 0.00 0.00 0.00 0.00 0.00 0.00 0.00 0.00 0.00 0.01 0.01 0.00 0.00 0.00 0.00 0.00 0.00 0.00 0.00 0.00 0.00 0.00 0.00 0.00 0.00 0.00 0.00 0.00 0.00 0.00 0.00 0.00 0.00 0.00
0.00 0.00 0.00 0.00 0.00 0.00 0.00 0.00 0.00 0.00 0.00 0.00 0.00 0.01 0.01 0.01 0.00 0.00 0.00 0.00 0.00 0.00 0.00 0.00 0.00 0.00 0.00 0.00 0.00 0.00 0.00 0.00 0.00 0.00 0.00 0.00 0.00 0.00
0.00 0.00 0.00 0.00 0.00 0.00 0.00 0.00 0.00 0.00 0.00 0.00 0.00 0.00 0.00 0.00 0.00 0.00 0.00 0.00 0.00 0.00 0.00 0.00 0.00 0.00 0.00 0.00 0.00 0.00 0.00 0.00 0.00 0.00 0.00 0.00 0.00 0.00
0.00 0.00 0.00 0.00 0.00 0.00 0.00 0.00 0.00 0.00 0.00 0.00 0.00 0.00 0.00 0.00 0.00 0.00 0.00 0.00 0.00 0.00 0.00 0.00 0.00 0.00 0.00 0.00 0.00 0.00 0.00 0.00 0.00 0.00 0.00 0.00 0.00 0.00
0.00 0.00 0.00 0.00 0.00 0.00 0.00 0.00 0.00 0.00 0.00 0.00 0.00 0.00 0.00 0.00 0.00 0.00 0.00 0.00 0.00 0.00 0.00 0.00 0.00 0.00 0.00 0.00 0.00 0.00 0.00 0.00 0.00 0.00 0.00 0.00 0.00 0.00
0.00 0.00 0.00 0.00 0.00 0.00 0.00 0.00 0.00 0.00 0.00 0.00 0.00 0.00 0.00 0.00 0.00 0.00 0.00 0.00 0.00 0.00 0.00 0.00 0.00 0.00 0.00 0.00 0.00 0.00 0.00 0.00 0.00 0.00 0.00 0.00 0.00 0.00
0.00 0.00 0.00 0.00 0.00 0.00 0.00 0.00 0.00 0.00 0.00 0.00 0.00 0.00 0.00 0.00 0.00 0.00 0.00 0.00 0.00 0.00 0.00 0.00 0.00 0.00 0.00 0.00 0.00 0.00 0.00 0.00 0.00 0.00 0.00 0.00 0.00 0.00
0.00 0.00 0.00 0.00 0.00 0.00 0.00 0.00 0.00 0.00 0.00 0.00 0.00 0.00 0.00 0.00 0.00 0.00 0.00 0.00 0.00 0.00 0.00 0.00 0.00 0.00 0.00 0.00 0.00 0.00 0.00 0.00 0.00 0.00 0.00 0.00 0.00 0.00
0.00 0.00 0.00 0.00 0.00 0.00 0.00 0.00 0.00 0.00 0.00 0.00 0.00 0.00 0.00 0.00 0.00 0.00 0.00 0.00 0.00 0.00 0.00 0.00 0.00 0.00 0.00 0.00 0.00 0.00 0.00 0.00 0.00 0.00 0.00 0.00 0.00 0.00
MSLP
1019.23 1019.33 1019.53 1019.82 1020.21 1020.69 1021.22 1021.77 1022.32 1022.82 1023.25 1023.58 1023.79 1023.89 1023.89 1023.82 1023.69 1023.55 1023.43 1023.36 1023.37 1023.45 1023.59 1023.77 1023.96 1024.14 1024.27 1024.33 1024.31 1024.21 1024.04 1023.82 1023.54 1023.24 1022.91 1022.56 1022.20 1021.83
1019.86 1019.90 1020.01 1020.22 1020.51 1020.89 1021.34 1021.83 1022.34 1022.82 1023.24 1023.58 1023.81 1023.92 1023.93 1023.86 1023.73 1023.58 1023.44 1023.36 1023.35 1023.41 1023.53 1023.71 1023.90 1024.08 1024.22 1024.30 1024.30 1024.22 1024.07 1023.87 1023.61 1023.32 1023.01 1022.67 1022.31 1021.93
1020.54 1020.55 1020.62 1020.75 1020.96 1021.26 1021.63 1022.05 1022.50 1022.94 1023.34 1023.67 1023.91 1024.03 1024.05 1023.98 1023.85 1023.68 1023.53 1023.41 1023.36 1023.38 1023.47 1023.61 1023.77 1023.93 1024.05 1024.13 1024.14 1024.09 1023.97 1023.80 1023.59 1023.35 1023.08 1022.77 1022.44 1022.07
1021.21 1021.23 1021.28 1021.38 1021.54 1021.76 1022.06 1022.41 1022.80 1023.20 1023.57 1023.88 1024.11 1024.24 1024.27 1024.20 1024.06 1023.89 1023.71 1023.55 1023.45 1023.40 1023.43 1023.50 1023.60 1023.71 1023.81 1023.87 1023.88 1023.85 1023.77 1023.66 1023.50 1023.32 1023.10 1022.85 1022.56 1022.21
1021.83 1021.89 1021.95 1022.04 1022.17 1022.35 1022.60 1022.89 1023.22 1023.57 1023.90 1024.19 1024.41 1024.54 1024.57 1024.51 1024.37 1024.18 1023.97 1023.77 1023.61 1023.50 1023.44 1023.43 1023.46 1023.50 1023.54 1023.57 1023.58 1023.55 1023.51 1023.43 1023.34 1023.22 1023.07 1022.87 1022.63 1022.32
1022.39 1022.49 1022.58 1022.69 1022.81 1022.97 1023.17 1023.42 1023.70 1024.00 1024.29 1024.56 1024.76 1024.88 1024.92 1024.86 1024.72 1024.52 1024.29 1024.06 1023.84 1023.66 1023.52 1023.43 1023.37 1023.34 1023.31 1023.29 1023.27 1023.24 1023.21 1023.17 1023.11 1023.04 1022.95 1022.80 1022.60 1022.34
1022.87 1023.02 1023.15 1023.28 1023.41 1023.56 1023.73 1023.93 1024.17 1024.42 1024.67 1024.90 1025.08 1025.20 1025.23 1025.18 1025.05 1024.85 1024.61 1024.35 1024.10 1023.86 1023.66 1023.49 1023.35 1023.24 1023.15 1023.07 1023.00 1022.95 1022.91 1022.87 1022.84 1022.79 1022.73 1022.63 1022.47 1022.23
1023.30 1023.47 1023.64 1023.79 1023.92 1024.06 1024.21 1024.37 1024.55 1024.75 1024.96 1025.15 1025.31 1025.41 1025.44 1025.40 1025.28 1025.10 1024.86 1024.60 1024.33 1024.06 1023.82 1023.59 1023.39 1023.21 1023.05 1022.91 1022.80 1022.70 1022.62 1022.57 1022.52 1022.48 1022.43 1022.34 1022.20 1022.00
1023.68 1023.87 1024.05 1024.21 1024.34 1024.46 1024.58 1024.70 1024.83 1024.97 1025.12 1025.27 1025.39 1025.47 1025.50 1025.46 1025.36 1025.20 1024.99 1024.74 1024.47 1024.20 1023.94 1023.68 1023.44 1023.22 1023.01 1022.81 1022.64 1022.49 1022.36 1022.27 1022.19 1022.13 1022.06 1021.98 1021.85 1021.66
1024.04 1024.24 1024.41 1024.56 1024.67 1024.76 1024.84 1024.91 1024.98 1025.06 1025.15 1025.24 1025.32 1025.37 1025.38 1025.35 1025.26 1025.12 1024.94 1024.73 1024.49 1024.24 1023.98 1023.73 1023.47 1023.22 1022.98 1022.74 1022.52 1022.32 1022.14 1021.99 1021.87 1021.76 1021.67 1021.57 1021.45 1021.28
1024.41 1024.58 1024.73 1024.85 1024.94 1024.99 1025.02 1025.03 1025.04 1025.05 1025.08 1025.11 1025.13 1025.15 1025.14 1025.10 1025.02 1024.90 1024.75 1024.56 1024.36 1024.14 1023.91 1023.68 1023.43 1023.18 1022.93 1022.67 1022.41 1022.17 1021.94 1021.74 1021.57 1021.43 1021.31 1021.19 1021.07 1020.92
1024.78 1024.91 1025.03 1025.11 1025.16 1025.17 1025.14 1025.10 1025.05 1025.00 1024.96 1024.93 1024.91 1024.87 1024.83 1024.77 1024.68 1024.57 1024.43 1024.28 1024.11 1023.92 1023.73 1023.52 1023.31 1023.07 1022.83 1022.57 1022.30 1022.03 1021.77 1021.54 1021.33 1021.15 1021.00 1020.87 1020.75 1020.61
1025.14 1025.24 1025.31 1025.35 1025.36 1025.32 1025.25 1025.16 1025.06 1024.96 1024.87 1024.78 1024.70 1024.63 1024.54 1024.45 1024.34 1024.22 1024.08 1023.93 1023.77 1023.62 1023.45 1023.28 1023.09 1022.89 1022.67 1022.42 1022.16 1021.89 1021.62 1021.36 1021.13 1020.93 1020.76 1020.62 1020.50 1020.38
1025.48 1025.53 1025.57 1025.58 1025.54 1025.47 1025.37 1025.25 1025.11 1024.97 1024.84 1024.71 1024.59 1024.47 1024.34 1024.20 1024.06 1023.91 1023.75 1023.59 1023.43 1023.27 1023.12 1022.97 1022.81 1022.64 1022.44 1022.23 1021.99 1021.73 1021.46 1021.20 1020.96 1020.75 1020.57 1020.43 1020.31 1020.20
1025.76 1025.78 1025.78 1025.76 1025.70 1025.61 1025.49 1025.35 1025.20 1025.04 1024.89 1024.74 1024.59 1024.43 1024.26 1024.08 1023.89 1023.69 1023.49 1023.30 1023.11 1022.94 1022.79 1022.64 1022.49 1022.34 1022.17 1021.98 1021.77 1021.54 1021.29 1021.04 1020.80 1020.58 1020.39 1020.24 1020.11 1020.01
1025.96 1025.95 1025.93 1025.88 1025.81 1025.71 1025.59 1025.45 1025.31 1025.16 1025.01 1024.85 1024.69 1024.51 1024.31 1024.09 1023.85 1023.60 1023.35 1023.10 1022.87 1022.66 1022.48 1022.32 1022.17 1022.02 1021.87 1021.71 1021.51 1021.30 1021.07 1020.83 1020.59 1020.37 1020.17 1020.00 1019.86 1019.74
1026.06 1026.03 1025.98 1025.92 1025.84 1025.75 1025.64 1025.52 1025.40 1025.28 1025.15 1025.02 1024.86 1024.67 1024.46 1024.21 1023.93 1023.63 1023.31 1023.01 1022.72 1022.46 1022.23 1022.03 1021.87 1021.71 1021.56 1021.40 1021.22 1021.03 1020.80 1020.57 1020.32 1020.09 1019.87 1019.67 1019.49 1019.35
1026.05 1026.00 1025.95 1025.87 1025.80 1025.71 1025.63 1025.54 1025.46 1025.38 1025.29 1025.18 1025.04 1024.87 1024.65 1024.38 1024.07 1023.72 1023.36 1022.99 1022.65 1022.33 1022.05 1021.81 1021.61 1021.43 1021.26 1021.10 1020.92 1020.72 1020.49 1020.25 1019.99 1019.72 1019.47 1019.23 1019.01 1018.81
1025.96 1025.90 1025.83 1025.76 1025.68 1025.61 1025.55 1025.50 1025.46 1025.42 1025.37 1025.30 1025.19 1025.04 1024.83 1024.55 1024.22 1023.84 1023.44 1023.03 1022.63 1022.26 1021.93 1021.64 1021.40 1021.19 1021.00 1020.82 1020.62 1020.41 1020.16 1019.90 1019.61 1019.31 1019.01 1018.72 1018.44 1018.19
1025.83 1025.75 1025.67 1025.60 1025.53 1025.47 1025.43 1025.41 1025.41 1025.40 1025.40 1025.36 1025.29 1025.16 1024.96 1024.69 1024.35 1023.96 1023.53 1023.08 1022.65 1022.24 1021.87 1021.54 1021.26 1021.02 1020.80 1020.59 1020.37 1020.13 1019.87 1019.57 1019.25 1018.91 1018.56 1018.21 1017.87 1017.55
1025.67 1025.59 1025.51 1025.43 1025.37 1025.32 1025.30 1025.30 1025.33 1025.36 1025.38 1025.38 1025.33 1025.21 1025.03 1024.76 1024.43 1024.03 1023.59 1023.13 1022.67 1022.24 1021.84 1021.49 1021.18 1020.91 1020.67 1020.43 1020.19 1019.93 1019.64 1019.32 1018.96 1018.58 1018.19 1017.79 1017.39 1017.02
1025.53 1025.45 1025.37 1025.30 1025.23 1025.20 1025.19 1025.21 1025.25 1025.30 1025.34 1025.35 1025.32 1025.22 1025.04 1024.78 1024.45 1024.06 1023.62 1023.15 1022.69 1022.25 1021.85 1021.48 1021.17 1020.88 1020.62 1020.37 1020.11 1019.83 1019.53 1019.18 1018.80 1018.39 1017.96 1017.52 1017.08 1016.66
1025.40 1025.34 1025.26 1025.20 1025.15 1025.12 1025.12 1025.15 1025.20 1025.26 1025.30 1025.32 1025.28 1025.18 1025.01 1024.75 1024.42 1024.03 1023.60 1023.15 1022.70 1022.26 1021.86 1021.51 1021.19 1020.91 1020.64 1020.39 1020.13 1019.84 1019.53 1019.17 1018.79 1018.36 1017.91 1017.45 1016.98 1016.52
Thickness
5626 5627 5627 5626 5625 5624 5621 5618 5611 5600 5593 5591 5590 5589 5587 5585 5583 5581 5579 5576 5574 5571 5567 5563 5559 5555 5552 5548 5544 5540 5537 5535 5532 5530 5528 5525 5523 5521
5613 5614 5613 5613 5612 5611 5609 5607 5604 5599 5588 5582 5581 5580 5578 5576 5573 5571 5569 5566 5563 5560 5556 5552 5547 5544 5540 5536 5532 5529 5526 5523 5520 5517 5515 5512 5510 5508
5600 5600 5599 5600 5598 5597 5596 5595 5592 5589 5581 5573 5571 5569 5567 5565 5562 5560 5559 5556 5553 5550 5546 5541 5537 5533 5530 5526 5522 5519 5515 5512 5509 5506 5503 5501 5499 5497
5586 5587 5586 5587 5585 5583 5582 5580 5578 5576 5571 5564 5559 5557 5556 5555 5553 5550 5548 5546 5543 5540 5536 5532 5528 5524 5520 5517 5513 5510 5506 5503 5500 5497 5494 5492 5490 5488
5574 5574 5574 5574 5571 5570 5569 5567 5565 5563 5559 5554 5548 5546 5545 5544 5542 5540 5538 5536 5534 5531 5527 5523 5519 5516 5512 5508 5505 5502 5498 5495 5492 5489 5486 5484 5482 5480
5562 5562 5562 5561 5560 5559 5557 5554 5552 5549 5546 5542 5537 5535 5533 5532 5531 5528 5525 5525 5523 5522 5519 5515 5512 5509 5505 5502 5499 5495 5492 5489 5486 5483 5480 5478 5476 5473
5551 5551 5551 5550 5550 5549 5547 5543 5541 5537 5533 5530 5526 5523 5521 5520 5518 5517 5515 5514 5513 5513 5510 5508 5506 5503 5500 5497 5493 5490 5487 5484 5481 5479 5476 5473 5470 5468
5539 5539 5540 5539 5539 5538 5537 5535 5533 5529 5524 5520 5516 5514 5512 5511 5509 5509 5506 5504 5503 5504 5501 5500 5499 5496 5495 5493 5490 5486 5484 5481 5478 5475 5472 5469 5466 5464
5529 5529 5529 5528 5528 5527 5526 5525 5523 5521 5518 5514 5509 5507 5506 5505 5503 5501 5499 5497 5496 5497 5495 5493 5492 5490 5491 5489 5487 5484 5481 5478 5475 5472 5469 5466 5464 5462
5519 5518 5518 5517 5517 5517 5516 5514 5512 5510 5509 5507 5505 5503 5501 5500 5498 5496 5494 5493 5492 5492 5491 5487 5487 5486 5488 5487 5485 5482 5479 5476 5473 5470 5467 5465 5462 5459
5509 5508 5508 5507 5507 5507 5506 5503 5501 5501 5501 5500 5500 5498 5497 5495 5494 5491 5489 5487 5484 5485 5486 5484 5482 5481 5483 5483 5483 5481 5478 5475 5472 5470 5467 5464 5461 5458
5499 5498 5499 5499 5499 5498 5496 5494 5492 5492 5493 5494 5494 5493 5492 5491 5490 5488 5485 5482 5480 5480 5483 5481 5480 5478 5477 5479 5480 5480 5477 5475 5473 5470 5467 5464 5461 5456
5490 5489 5490 5491 5491 5490 5490 5488 5487 5487 5486 5487 5487 5487 5487 5486 5486 5486 5484 5482 5479 5478 5482 5480 5478 5475 5473 5473 5476 5478 5476 5474 5472 5470 5468 5465 5461 5457
5483 5483 5483 5485 5485 5485 5484 5484 5483 5483 5482 5481 5480 5480 5480 5481 5482 5483 5483 5483 5482 5482 5483 5481 5478 5476 5472 5470 5471 5474 5475 5474 5472 5470 5468 5465 5462 5458
5478 5479 5480 5480 5480 5480 5480 5480 5479 5477 5476 5474 5473 5474 5476 5477 5479 5481 5482 5482 5482 5483 5483 5482 5480 5477 5474 5471 5470 5470 5471 5473 5472 5469 5467 5465 5462 5458
5473 5475 5476 5476 5476 5476 5475 5474 5474 5473 5471 5470 5470 5471 5473 5475 5476 5477 5477 5477 5477 5479 5482 5482 5481 5479 5476 5474 5472 5471 5470 5470 5471 5470 5467 5465 5463 5460
5468 5469 5470 5469 5469 5468 5468 5469 5469 5469 5468 5467 5467 5468 5470 5471 5472 5474 5473 5473 5473 5473 5476 5480 5481 5481 5479 5476 5474 5473 5472 5471 5471 5469 5467 5464 5464 5462
5465 5463 5463 5463 5463 5463 5463 5464 5464 5464 5464 5465 5465 5466 5467 5468 5469 5471 5471 5471 5471 5473 5474 5476 5477 5477 5477 5478 5478 5475 5474 5472 5472 5470 5467 5463 5462 5464
5462 5460 5460 5460 5460 5460 5460 5461 5461 5462 5462 5463 5463 5464 5465 5466 5468 5468 5470 5470 5472 5473 5475 5476 5476 5474 5471 5471 5478 5480 5476 5475 5473 5471 5469 5465 5463 5464
5460 5459 5459 5459 5460 5459 5459 5460 5460 5460 5461 5461 5462 5462 5463 5465 5466 5467 5468 5470 5471 5473 5475 5477 5477 5475 5473 5473 5475 5480 5482 5478 5475 5472 5471 5468 5466 5466
5460 5460 5460 5460 5460 5459 5459 5459 5459 5458 5459 5460 5460 5461 5462 5464 5465 5467 5468 5471 5472 5473 5474 5476 5479 5481 5479 5477 5476 5478 5483 5484 5481 5477 5474 5469 5466 5464
5461 5461 5461 5461 5460 5460 5459 5459 5458 5458 5458 5459 5460 5461 5462 5464 5465 5467 5468 5470 5472 5473 5475 5478 5481 5482 5481 5479 5477 5477 5479 5483 5484 5482 5478 5474 5468 5464
5465 5464 5463 5462 5462 5461 5460 5459 5459 5458 5458 5459 5460 5461 5463 5464 5466 5468 5469 5471 5473 5475 5476 5478 5480 5481 5480 5479 5478 5477 5480 5480 5479 5478 5479 5479 5475 5472